Miscellaneous Local Product
Issued by NWS Hastings, NE

Home | Current Version | Previous Version | Graphics & Text | Print | Product List | Glossary On
Versions: 1 2 3 4 5 6 7 8 9 10 11 12 13 14 15 16 17 18 19 20 21 22 23 24 25 26 27 28 29 30 31 32 33 34 35 36 37 38 39 40 41 42 43 44 45 46 47 48 49 50
000
AXUS43 KGID 131902
MISGRI

GID CWA HOURLY WEATHER ROUNDUP
NATIONAL WEATHER SERVICE HASTINGS NE
200 PM CDT SUN JUL 13 2014

NOTE: "FAIR" INDICATES FEW OR NO CLOUDS BELOW 12,000 FEET WITH NO
SIGNIFICANT WEATHER AND/OR OBSTRUCTIONS TO VISIBILITY.

...SOUTH CENTRAL NEBRASKA...

CITY           SKY/WX    TMP DP  RH WIND       PRES   REMARKS
GRAND ISLAND   MOSUNNY   87  63  44 NW5       30.09F
HASTINGS       SUNNY     84  59  42 NW7       30.10F
KEARNEY        SUNNY     84  57  39 N8        30.12F
ORD            MOSUNNY   84  64  50 NW12      30.07F
YORK           SUNNY     84  63  48 N5        30.07F
AURORA         MOSUNNY   84  66  53 W6        30.08F
LEXINGTON      SUNNY     86  60  40 NW5       30.14S
HOLDREGE       SUNNY     84  59  43 NW7       30.13F
HEBRON         MOSUNNY   86  67  54 CALM      30.08S

...NEBRASKA PANHANDLE...

CITY           SKY/WX    TMP DP  RH WIND       PRES   REMARKS
CHADRON        SUNNY     86  55  34 VRB5      30.15F
ALLIANCE       MOSUNNY   84  49  29 VRB6      30.20F
SCOTTSBLUFF    SUNNY     84  58  40 SE6       30.21F
SIDNEY         MOSUNNY   86  56  35 N3        30.24F

...WESTERN AND NORTH CENTRAL NEBRASKA...

CITY           SKY/WX    TMP DP  RH WIND       PRES   REMARKS
VALENTINE      SUNNY     84  54  35 NW12      30.13F
AINSWORTH      MOSUNNY   82  49  32 N8G17     30.13F
ONEILL         PTSUNNY   82  62  50 NW8       30.08F
BROKEN BOW     MOSUNNY   84  65  52 NW9       30.12F
IMPERIAL       LGT RAIN  84  59  42 NW7       30.18F
NORTH PLATTE   SUNNY     86  58  38 NW8       30.14F
MCCOOK         MOSUNNY   88  57  34 NW8       30.15F

...EASTERN NEBRASKA...

CITY           SKY/WX    TMP DP  RH WIND       PRES   REMARKS
NORFOLK        PTSUNNY   81  68  64 N10G16    30.04F THUNDER
SO SIOUX CITY  PTSUNNY   83  62  49 NW8       30.02F
TEKAMAH        MOSUNNY   87  67  51 NW9       30.00F HX  90
ALBION         MOSUNNY   81  64  56 W6        30.07S
OMAHA EPPLEY   MOSUNNY   87  66  49 W10       30.01F
OFFUTT AFB     SUNNY     86  67  53 NW7       30.02F
MILLARD        MOSUNNY   86  66  52 W5        30.02F
LINCOLN        SUNNY     90  62  39 NW12      30.04F HX  90
NEBRASKA CITY  SUNNY     83  66  55 N6        30.03F
BEATRICE       MOSUNNY   82  67  60 N5        30.05F
FALLS CITY     MOSUNNY   85  71  63 NE6       30.02F HX  90

...NORTHERN KANSAS...

CITY           SKY/WX    TMP DP  RH WIND       PRES   REMARKS
GOODLAND       PTSUNNY   84  60  44 E7        30.22F
HILL CITY      SUNNY     90  59  35 N7        30.13F
NORTON         CLEAR     90  46  22 N12G17    30.12F
SMITH CENTER   SUNNY     86  61  42 N3        30.10F
BELOIT         MOSUNNY   84  64  51 N6        30.07F
HAYS           MOSUNNY   84  63  48 N10       30.12F
RUSSELL        PTSUNNY   86  64  47 NE9       30.10S
CONCORDIA      MOSUNNY   85  67  54 N10       30.07F
SALINA         PTSUNNY   89  64  43 N13       30.06F HX  90
TOPEKA         MOSUNNY   86  73  65 N7        30.01F HX  93



USA.gov is the U.S. government's official web portal to all federal, state and local government web resources and services.